Regional Weather Roundup
Issued by NWS

Home | Current Version | Previous Version | Graphics & Text | Print | Product List | Glossary On
Versions: 1 2 3 4 5 6 7 8 9 10 11 12 13 14 15 16 17 18 19 20 21 22 23 24 25 26 27 28 29 30 31 32 33 34 35 36 37 38 39 40 41 42 43 44 45 46 47 48 49 50
000
ASUS44 KMEG 300410
RWRTN
TENNESSEE HOURLY STATE WEATHER ROUNDUP
NATIONAL WEATHER SERVICE MEMPHIS TN
1100 PM CDT SUN MAY 29 2016

TNZ002-004-019-021-049-052-054-088>092-300500-
WEST TENNESSEE

CITY           SKY/WX    TMP DP  RH WIND       PRES   REMARKS
MEMPHIS INTL   CLOUDY    78  68  71 W3        30.06S
NWS MEMPHIS      N/A     75 N/A N/A MISG        N/A
JACKSON        PTCLDY    72  68  87 CALM      30.05S
DYERSBURG      CLEAR     72  68  88 CALM      30.06R
UNION CITY     CLEAR     73  70  88 CALM      30.04S
PARIS          CLEAR     68  66  94 CALM      30.06S
LEXINGTON      CLEAR     70  70 100 CALM      30.04F
$$

TNZ008-025-027-028-033-062-065-066-300500-
NORTH MIDDLE TENNESSEE

CITY           SKY/WX    TMP DP  RH WIND       PRES   REMARKS
NASHVILLE      PTCLDY    74  66  76 CALM      30.05S
CLARKSVILLE    CLOUDY    71  66  84 N3        30.04F
SMYRNA         CLEAR     71  67  87 CALM      30.05F
COOKEVILLE     CLEAR     66  66 100 CALM      30.05F
CROSSVILLE     CLEAR     67  62  84 W5        30.11F
$$

TNZ061-075-076-078-094-096-097-300500-
SOUTH MIDDLE TENNESSEE

CITY           SKY/WX    TMP DP  RH WIND       PRES   REMARKS
FAYETTEVILLE   CLEAR     75  64  69 CALM      30.06F
TULLAHOMA      CLEAR     72  68  88 CALM      30.08S
WINCHESTER     CLEAR     70  64  83 CALM      30.07S
MCMINNVILLE    MOCLDY    73  68  83 CALM      30.07S
COLUMBIA       CLEAR    N/A N/A N/A S3        30.05S
SHELBYVILLE    CLEAR     70  66  88 CALM      30.07F
$$

TNZ017-018-042-046-047-300500-
NORTHEAST TENNESSEE

CITY           SKY/WX    TMP DP  RH WIND       PRES   REMARKS
TRI CITIES     CLEAR     60  57  89 CALM      30.10S
$$

TNZ012-013-036-069-073-074-300500-
CENTRAL EAST TENNESSEE

CITY           SKY/WX    TMP DP  RH WIND       PRES   REMARKS
KNOXVILLE      PTCLDY    67  66  97 CALM      30.05F FOG
OAK RIDGE      CLEAR     69  65  86 CALM      30.08S
GATLINBURG     CLEAR     66  64  94 CALM      30.06F
$$

TNZ083-085-099-300500-
SOUTHEAST TENNESSEE

CITY           SKY/WX    TMP DP  RH WIND       PRES   REMARKS
CHATTANOOGA    PTCLDY    77  64  64 CALM      30.04S
$$

SKY/WX REPORTED AS FAIR MEANS FEW OR NO CLOUDS BELOW
12 THOUSAND FEET.





USA.gov is the U.S. government's official web portal to all federal, state and local government web resources and services.